Location: Unspecified
(43.4680°N, 87.1740°E)
Time: 20:35:16
(UTC+00:00)

SL-8 R/B - Pass Details

Date: 17 April 2021
Orbit: 656 x 667 km, 48.4° (Epoch: 11 May)

Event Time Altitude Azimuth Distance (km) Brightness Sun altitude
Rises 14:15:25 0° 291° (WNW) 3,005 8.9 -14.0°
Reaches altitude 10° 14:17:49 10° 295° (WNW) 2,091 7.7 -14.3°
Maximum altitude 14:22:35 59° 15° (NNE) 773 4.1 -15.1°
Enters shadow 14:25:40 21° 89° (E) 1,474 5.0 -15.6°
